Showing default

LEMUR 2 DAISY-HARPER, 43889

Orbit data source: Space-Track

LEMUR 2 DAISY-HARPER, 43889 is a payload satellite owned by Spire/Lux (US) in LEO that was launched on Thu, 27 Dec 2018 UTC via a SOYUZ-2-1A launch vehicle from the Vostochny Cosmodrome (VOSTO). Payloads include a variety of satellites, spacecraft, and rockets equipped with specific instruments for various scientific and technological missions. These include communications satellites like Starlink; space stations such as the ISS; scientific satellites like the Hubble; Earth observation satellites from companies like Planet Labs, Umbra, and HawkEye 360; GPS; miniature CubeSats for education and research; and military/defense satellites.

Loading next visibility...
LEMUR 2 DAISY-HARPER details
Identifier
43889, 2018-111P
Orbit
LEO
Last TLE update14 hours ago
Origin
Flag of USSpire/Lux (US)
ManufacturerSpire/Glasgow
MissionOperational Commercial Com/MetRO
Bus & MotorCUBESAT 3U, Unknown motor
Mass4.6 kg wet, 4.6 kg dry
Launch date (UTC)
2018-12-27 (6 years ago)
Launch vehicle
SOYUZ-2-1A
Launch site
Vostochny Cosmodrome (VOSTO)
Object type
Payload
Rocket body
Debris
Shape & HBRBox + 2 Pan, 0.7 m
Radar Cross Section0.124 m², Small (<0.1 m²)

Expand to show TLE details & history

TLE from 14 hours ago
0 LEMUR 2 DAISY-HARPER
1 43889U 18111P   24347.76507950  .00118520  00000-0  21648-2 0  9993
2 43889  97.6447 270.5284 0013365 104.7176 255.5556 15.48876036327264
Epoch: 2024-12-12T18:21Z
Definitive object data (Epoch: 2024-12-12T18:21:42.868Z)
Latitude-0.00007°
Longitude-86.84093°
Altitude425.414 km
Speed7.655 km/s
True Right ascension18h 02m 06s
True Declination0° 00' 00"
Sunlit
Object was in daylight at TLE epoch
Visualization TLE readout
Latitude64.13024°
Longitude-102.19009°
Altitude423.471 km
Speed7.667 km/s
Apparent Right ascension18h 18m 37s
Apparent Declination14° 55' 28"
Sunlit
Object is in daylight
Visualization observer readout
Local Sidereal Time07:05:21
Azimuth13.668° NNE
Elevation-34.09°
Doppler factor1
Orbital elements
Apogee altitude426.032 km
Perigee altitude407.869 km
Semi-major axis6,795.088 km
Eccentricity0.0013365
Inclination97.6447°
RAAN270.5284°
Arg. of periapsis104.7176°
True anomaly255.40735°
Mean anomaly255.5556°
Eccentric anomaly255.48147°
Mean motion3.87481 °/min
BSTAR0.0021648
Orbital period92.91 mins
Loading maneuver chart data...
Loading historical data...
Loading historical data...
Loading historical data...
Loading historical data...
Loading historical data...
Loading historical data...
Loading historical data...

LEMUR 2 DAISY-HARPER Visibility forecast

Observer location: undefined°, undefined

Span
Click to sort rows by Start time (UTC) header in descending order
Start Az.
Max El. time (UTC)
Max El. Az.
Max El.
End time (UTC)
End Az.
4 mins2024-12-13 19:18:44.205Z186.669° SSW2024-12-13 19:20:44.205Z293.307° NW38.944°2024-12-13 19:22:44.205Z336.798° NNW
4 mins2024-12-14 08:08:44.205Z356.043° N2024-12-14 08:09:44.205Z322.472° NNW40.193°2024-12-14 08:12:44.205Z203.818° SW
|